EHI
0 0 0 0 0 0 0 0 0 0 0 0 0 0 0 0 0 0 0 1 3 3 1 1 2 4 4 4 3 2 1 0 1 1 0 0 0 0 0 0 0 0 0 0
0 0 0 0 0 0 0 0 0 0 0 0 0 0 0 0 0 0 0 1 3 5 3 1 1 2 2 3 3 2 1 1 2 2 1 0 0 0 0 0 0 0 0 0
0 0 0 0 0 0 0 0 0 0 0 0 0 1 1 0 0 0 0 1 4 7 6 3 1 1 2 3 4 3 1 2 3 3 1 0 0 0 0 0 0 0 0 0
0 0 0 0 0 0 0 0 0 0 0 0 0 1 1 1 0 0 1 2 4 6 7 6 2 2 3 4 4 3 2 2 3 2 1 0 0 0 0 0 0 0 0 0
0 0 0 0 0 0 0 0 0 0 0 0 0 0 1 1 0 0 1 2 3 4 6 6 3 1 1 3 4 3 3 3 3 2 1 1 1 0 0 0 0 0 0 0
0 0 0 0 0 0 0 0 0 0 0 0 0 1 1 1 0 0 1 2 2 2 4 5 4 2 2 2 3 4 3 3 3 3 2 2 2 1 1 0 0 0 0 0
0 0 0 0 0 0 0 0 0 0 0 0 0 1 1 1 0 0 1 2 2 2 4 5 6 6 4 4 4 4 3 2 2 2 3 3 3 3 2 1 1 1 1 0
0 0 0 0 0 0 0 0 0 0 0 0 0 0 0 0 0 0 1 2 2 3 5 7 9 8 7 7 5 2 1 1 1 1 1 2 2 2 2 2 2 2 1 1
0 0 0 0 0 0 0 0 0 0 0 0 0 0 0 0 0 0 1 3 4 4 5 7 9 9 9 8 5 2 1 0 0 0 0 1 1 1 1 1 1 1 1 0
0 0 0 0 0 0 0 0 0 0 0 0 0 0 0 0 0 0 1 4 6 5 4 5 8 9 8 7 5 3 1 0 0 0 0 0 0 0 0 0 0 0 0 0
0 0 0 0 0 0 0 0 0 0 0 0 0 0 0 0 0 0 1 4 6 4 3 3 5 6 6 4 3 2 1 0 0 0 0 0 0 0 0 0 0 0 0 0
0 0 0 0 0 0 0 0 0 0 0 0 0 0 0 0 0 0 1 4 5 3 1 1 2 3 3 3 3 1 0 0 0 0 0 0 0 0 0 0 0 0 0 0
0 0 0 0 0 0 0 0 0 0 0 0 0 0 0 0 0 0 1 3 3 1 0 0 0 1 3 3 2 1 0 0 0 0 0 0 0 0 0 0 0 0 0 0
0 0 0 0 0 0 0 0 0 0 0 0 0 0 0 0 0 0 1 2 3 2 1 1 1 2 4 3 1 0 0 0 0 0 0 0 0 0 0 0 0 0 0 0
0 0 0 0 0 0 0 0 0 0 0 0 0 0 0 0 0 0 1 2 3 3 4 3 2 3 5 4 1 0 0 0 0 0 0 0 0 0 0 0 0 0 0 0
0 0 0 0 0 0 0 0 0 0 0 0 0 0 0 0 0 0 0 1 3 4 4 4 3 3 4 3 1 0 0 0 0 0 0 0 0 0 0 0 0 0 0 0
0 0 0 0 0 0 0 0 0 0 0 0 0 0 0 0 0 0 0 1 2 3 4 4 3 3 2 1 0 0 0 0 0 0 1 1 0 0 0 0 0 0 0 0
0 0 0 0 0 0 0 0 0 0 0 0 0 0 0 0 0 0 0 0 1 1 3 4 4 3 2 2 1 0 0 0 0 0 1 1 0 0 0 0 0 0 0 0
0 0 0 0 0 0 0 0 0 0 0 0 0 0 0 0 0 0 0 0 0 1 2 3 3 4 3 3 2 1 0 0 1 1 1 1 0 0 0 0 0 0 0 0
0 0 0 0 0 0 0 0 0 0 0 0 0 0 0 0 0 0 0 0 0 2 3 3 4 4 4 4 3 1 0 1 2 2 1 0 0 0 0 0 0 0 0 0
0 0 0 0 0 0 0 0 0 0 0 0 0 0 0 0 0 0 0 0 0 2 4 5 5 4 3 4 4 3 2 2 3 2 1 0 0 0 0 0 0 0 0 0
0 0 0 0 0 0 0 0 0 0 0 0 0 0 0 0 0 0 0 0 1 2 4 4 5 5 4 3 4 3 3 3 2 1 0 0 0 0 0 0 0 0 0 0
0 0 0 0 0 0 0 0 0 0 0 0 0 0 0 0 0 0 1 1 1 3 4 4 5 5 4 3 3 3 3 2 1 0 0 0 0 0 0 0 0 0 0 0
0 0 0 0 0 0 0 0 0 0 0 0 0 0 0 0 1 1 1 1 1 2 4 4 4 3 3 2 2 2 1 1 0 0 0 0 0 0 0 0 0 0 0 0
0 0 0 0 0 0 0 0 0 0 0 0 0 0 0 0 1 1 1 0 0 1 2 2 1 1 1 1 1 1 0 0 0 0 0 0 0 0 0 0 0 0 0 0
0 0 0 0 0 0 0 0 0 0 0 0 0 0 0 0 1 1 0 0 0 0 1 0 0 0 0 0 0 0 0 0 0 0 0 0 0 0 0 0 0 0 0 0
Wind_Speed
6 5 5 5 4 1 2 4 4 4 6 7 7 8 8 9 9 9 8 9 10 9 9 8 7 6 5 6 7 6 6 5 4 2 3 2 2 2 3 3 4 5 5 5
4 5 3 2 3 3 4 4 4 4 5 5 7 8 8 8 8 8 9 8 9 9 10 8 7 5 5 6 6 6 6 6 5 2 2 2 2 2 3 3 3 4 4 5
4 2 3 4 5 5 5 4 5 5 5 5 6 6 8 8 8 7 7 8 9 9 10 9 7 6 5 5 5 5 5 6 5 4 2 2 2 2 2 2 2 3 3 4
3 3 3 4 5 4 2 2 3 5 5 3 6 4 7 10 9 9 8 8 8 9 10 9 8 7 6 6 4 5 5 6 5 4 3 2 2 2 1 1 1 2 3 3
2 3 4 4 3 1 1 2 4 5 5 5 7 5 6 12 11 11 10 10 9 9 10 10 8 8 8 7 4 4 5 5 4 3 4 1 2 1 1 2 2 2 2 2
3 3 2 1 2 2 4 5 5 5 4 6 8 6 5 9 13 13 12 11 10 10 10 10 8 7 7 7 5 4 4 5 3 2 3 3 3 2 2 2 2 1 2 2
6 6 4 2 3 4 5 4 2 2 4 5 6 5 3 7 10 12 13 12 11 10 10 9 9 8 7 7 5 5 5 4 3 1 2 4 3 2 2 1 1 2 2 2
6 6 8 7 5 5 6 5 3 2 3 3 4 3 3 7 8 9 11 11 11 11 9 9 10 8 8 8 6 5 6 4 3 2 2 2 3 2 2 2 2 2 2 2
3 3 7 7 5 6 5 5 5 4 6 4 3 4 6 7 8 9 11 11 10 11 10 10 10 9 8 8 6 6 6 5 4 3 2 2 3 3 2 2 3 2 2 2
4 1 6 7 6 7 7 6 4 4 3 3 3 5 6 9 9 9 11 12 11 10 10 10 9 9 8 8 7 6 6 5 4 4 3 3 3 2 3 3 3 3 3 2
5 4 5 7 7 8 8 7 6 4 4 2 1 1 4 9 9 9 10 12 11 11 10 9 8 9 8 8 7 6 6 6 5 4 4 4 3 3 2 2 2 2 2 2
4 4 5 7 7 7 7 8 8 5 4 3 1 1 3 7 9 9 10 11 11 10 10 10 9 8 8 8 7 6 6 5 5 4 4 4 3 3 2 2 1 1 1 1
2 3 4 4 5 7 7 8 8 7 6 4 2 2 4 7 8 8 9 10 10 10 10 10 9 8 8 8 7 6 6 6 5 5 4 4 3 3 2 2 2 2 2 2
3 5 5 4 3 4 7 7 8 7 5 4 3 3 5 7 8 9 9 10 10 10 10 9 8 8 7 7 7 6 6 6 5 5 4 4 3 3 2 2 2 2 2 2
6 7 6 6 6 5 5 7 8 8 7 6 3 3 4 6 8 10 10 10 10 10 10 10 9 8 8 7 7 6 6 6 6 5 5 4 4 3 2 2 3 3 3 3
8 8 8 7 7 7 7 7 7 7 7 7 5 3 2 4 6 9 11 11 10 10 10 10 10 9 9 9 7 7 6 6 6 6 5 4 4 3 3 3 3 3 2 3
8 9 8 7 6 8 9 8 8 7 6 6 6 3 3 4 6 7 9 10 10 11 10 10 10 10 10 9 9 8 7 6 6 6 6 5 4 4 3 3 3 2 1 2
8 8 6 7 7 9 3 2 4 4 5 5 4 3 3 4 5 5 6 9 9 10 10 9 9 9 9 9 9 8 8 7 7 7 7 5 5 4 3 3 2 1 1 1
8 7 6 6 7 7 4 3 4 5 4 4 3 3 3 5 5 3 5 6 7 8 8 8 8 8 8 9 9 9 8 7 7 7 7 6 5 4 4 3 2 1 1 1
7 7 7 6 7 7 2 1 1 2 3 3 2 2 4 5 4 3 5 6 7 7 7 7 7 8 8 8 8 8 7 7 7 7 6 6 5 5 4 3 2 1 1 1
8 8 8 8 8 6 0 3 3 3 1 1 1 2 4 3 3 4 6 7 6 6 7 7 7 6 6 7 7 7 7 7 7 7 6 6 5 5 4 3 2 1 1 0
8 7 8 8 9 6 1 3 2 1 3 3 2 2 3 3 5 6 7 7 7 6 7 7 6 6 6 7 7 7 6 6 7 6 6 6 5 4 4 3 2 1 1 1
5 5 3 3 1 2 2 3 4 4 3 3 3 3 2 4 6 6 7 7 7 7 6 6 6 6 5 6 6 6 6 7 7 6 6 5 5 4 4 3 3 2 1 1
4 3 4 3 1 1 3 3 3 3 3 3 2 2 2 3 6 6 6 7 7 6 6 6 7 7 6 5 5 6 7 7 7 7 6 5 4 4 3 3 2 2 1 1
3 3 4 4 2 1 1 1 2 2 2 2 1 1 2 3 5 5 5 6 7 6 6 6 7 7 7 6 6 6 7 7 6 6 6 5 4 4 3 3 1 2 2 2
5 4 4 3 2 2 1 1 1 0 0 0 0 1 2 3 4 5 5 5 6 7 6 6 7 7 7 7 6 6 6 6 6 5 5 4 4 3 3 3 2 0 2 2
Wind_Direction
207 215 219 207 197 237 212 191 177 149 157 163 158 160 174 170 165 166 166 160 151 144 135 128 127 129 124 112 106 106 109 104 93 73 74 68 59 54 53 47 47 39 29 22
209 219 225 242 179 185 214 191 156 141 174 174 161 173 182 179 174 173 167 157 151 143 137 132 136 126 117 115 120 120 112 105 96 87 89 88 74 72 78 51 48 47 42 26
225 206 191 213 207 201 210 195 164 165 176 187 174 184 184 178 174 172 166 153 149 151 144 141 137 126 122 118 118 118 119 111 105 101 79 72 56 45 69 72 57 54 57 47
230 191 195 209 214 209 205 174 171 177 178 199 199 199 193 179 177 177 170 155 156 154 145 143 142 138 131 123 122 127 118 114 117 115 95 89 92 78 77 97 106 92 65 64
232 194 196 211 198 175 218 189 205 215 214 222 207 209 199 179 182 181 172 164 163 156 153 149 147 144 138 129 126 122 116 111 112 117 124 108 91 90 78 81 76 89 79 63
235 223 212 185 137 174 202 214 224 236 240 244 221 213 189 184 184 178 173 169 167 161 154 151 147 141 134 129 130 122 115 109 111 126 137 129 101 81 69 61 64 73 85 54
202 199 178 183 194 191 222 218 218 225 222 237 211 207 179 167 170 171 169 168 165 159 154 153 148 143 137 137 142 132 120 119 127 123 110 113 111 106 96 79 75 68 71 58
211 191 186 189 215 213 222 225 209 236 243 247 205 191 141 140 146 156 157 157 161 156 155 154 151 148 147 147 150 145 136 134 129 109 86 89 103 83 71 55 69 65 75 74
250 179 162 178 206 237 228 233 233 256 267 255 197 152 139 144 149 155 154 152 158 159 157 155 153 152 152 152 157 156 142 141 143 139 111 76 74 80 78 59 62 64 67 67
281 208 164 172 195 227 252 257 246 247 269 263 221 182 165 162 166 166 159 156 160 160 159 156 155 155 156 157 159 153 146 150 149 140 132 115 95 77 70 62 60 64 60 57
251 248 183 180 206 215 215 236 246 256 253 256 290 22 127 161 165 168 163 159 161 161 160 157 154 155 154 154 155 153 153 153 150 144 134 125 122 105 91 82 72 77 67 63
231 267 221 203 210 223 231 236 240 252 275 277 236 134 126 148 154 160 159 157 159 160 157 154 154 153 153 155 157 159 157 149 144 139 130 125 115 103 98 91 71 80 87 60
232 253 255 217 201 203 226 239 250 263 271 274 267 142 138 138 144 152 154 153 154 155 154 153 153 153 156 156 158 159 156 150 147 138 131 124 116 105 98 94 74 51 56 61
272 243 239 249 240 209 215 224 237 251 259 262 246 169 170 155 150 150 149 151 153 157 157 154 154 155 156 156 158 159 153 143 138 134 130 122 120 114 107 88 78 48 35 48
242 255 244 247 261 245 238 230 228 238 250 262 253 208 186 172 163 158 157 157 156 159 160 159 159 158 158 159 159 155 148 144 143 141 138 135 123 115 107 92 81 55 34 37
233 258 261 250 244 245 245 244 241 240 247 250 250 239 196 168 161 159 161 161 161 163 165 165 164 162 163 161 156 150 149 151 148 144 138 125 119 115 103 92 83 68 44 31
224 242 256 260 247 245 245 238 233 235 236 238 244 223 176 176 163 164 163 163 166 167 168 168 168 168 168 165 159 156 157 155 149 140 132 130 127 120 113 102 91 89 67 46
245 250 256 261 258 254 248 224 219 234 249 241 239 199 180 169 149 148 153 160 167 165 166 168 170 167 168 163 159 158 158 156 151 141 138 137 133 132 128 116 114 130 113 89
251 251 259 261 260 259 243 217 214 218 240 249 245 199 167 155 135 148 146 154 161 161 161 163 165 162 163 159 158 158 159 155 146 141 143 141 138 138 136 134 149 173 124 105
242 247 253 254 259 262 247 129 102 227 240 237 225 170 157 161 171 173 153 147 142 144 144 147 153 156 156 154 153 158 159 153 147 144 143 140 141 142 145 149 158 151 120 159
213 225 236 250 257 266 230 121 141 207 270 72 98 138 149 174 163 141 134 134 129 129 135 139 146 149 149 148 150 157 153 150 143 138 137 138 141 148 150 147 148 143 146 192
222 223 228 234 242 247 156 153 192 48 49 41 53 91 121 123 107 116 123 124 125 126 132 136 139 135 137 144 149 150 145 137 130 131 133 139 147 156 147 139 151 156 161 195
235 244 249 241 230 76 70 75 46 38 39 32 39 52 91 118 119 119 124 128 131 136 136 133 132 129 131 138 146 145 137 131 132 134 140 146 148 145 141 146 161 170 179 203
271 280 265 252 240 83 68 55 39 34 33 31 42 55 91 123 126 129 135 140 143 145 142 137 138 140 141 140 137 134 134 138 143 149 152 151 154 153 148 149 161 166 183 208
292 299 278 274 289 329 63 32 30 30 22 26 55 81 119 130 137 144 149 148 147 145 145 146 149 148 146 141 136 136 144 149 152 155 156 157 156 155 153 147 150 169 179 186
270 272 261 263 273 272 271 94 74 62 356 327 144 134 132 137 141 143 147 146 145 147 148 151 151 152 153 150 146 144 148 155 158 159 160 157 154 154 155 152 146 59 188 174